Alegria — LE9325 — position and weather

sailwx.info

Track history (hours):
 
Tides and Currents Weather Stations Pressure Air Temp Water Temp Dewpoint Dewpoint Depression Visibility Wind Speed Wind Dir Waves Ship Positions

Alegria

Last reported at 2015-May-24 17:08 UTC. Time now 2015-Jul-29 13:33 UTC.
Position N 59°30' E 010°36'.
Warning: this ship's position is months out of date.

Length 11 m.

Type: Pleasure craft. MMSI: 258532510.

Date/timePositionNaut miles runAvg speedWind from/ knotsBaromVisibWave heightAir tempDewpointWater temp
2015-May-24 17:08N 59°30' E 010°36'4 6.4
2015-May-24 16:33N 59°27' E 010°35'6 6.2
2015-May-24 15:33N 59°21' E 010°39'6 6.3
2015-May-24 14:34N 59°15' E 010°43'7 6.5
2015-May-24 13:33N 59°09' E 010°48'5 4.7
2015-May-24 12:33N 59°09' E 010°58'  
2015-May-18 09:33N 58°28' E 011°18'5 5.4
2015-May-18 08:33N 58°23' E 011°15'2 0.1
2015-May-17 09:11N 58°22' E 011°15'0 0.0
2015-May-16 16:30N 58°22' E 011°15'3 3.0
2015-May-16 15:33N 58°20' E 011°18'6 6.3
2015-May-16 14:31N 58°14' E 011°25'8 6.1
2015-May-16 13:13N 58°06' E 011°27'15 5.6
2015-May-16 10:33N 57°52' E 011°38'1 0.1
2015-May-15 12:33N 57°51' E 011°37'3 3.2
2015-May-15 11:33N 57°48' E 011°38'5 5.3
2015-May-15 10:33N 57°43' E 011°40'1 0.1
2015-May-15 05:33N 57°42' E 011°40'6 5.8
2015-May-15 04:33N 57°37' E 011°40'7 6.5
2015-May-15 03:30N 57°30' E 011°40'33 6.6
2015-May-14 22:33N 57°01' E 012°09'8 7.2
2015-May-14 21:30N 56°54' E 012°13'7 7.2
2015-May-14 20:33N 56°47' E 012°16'  
Track history (hours):
 
Tides and Currents Weather Stations Pressure Air Temp Water Temp Dewpoint Dewpoint Depression Visibility Wind Speed Wind Dir Waves Ship Positions

Alegria

Last reported at 2015-May-24 17:08 UTC. Time now 2015-Jul-29 13:33 UTC.
Position N 59°30' E 010°36'.
Warning: this ship's position is months out of date.

Length 11 m.

Type: Pleasure craft. MMSI: 258532510.

Date/timePositionNaut miles runAvg speedWind from/ knotsBaromVisibWave heightAir tempDewpointWater temp
2015-May-24 17:08N 59°30' E 010°36'4 6.4
2015-May-24 16:33N 59°27' E 010°35'6 6.2
2015-May-24 15:33N 59°21' E 010°39'6 6.3
2015-May-24 14:34N 59°15' E 010°43'7 6.5
2015-May-24 13:33N 59°09' E 010°48'5 4.7
2015-May-24 12:33N 59°09' E 010°58'  
2015-May-18 09:33N 58°28' E 011°18'5 5.4
2015-May-18 08:33N 58°23' E 011°15'2 0.1
2015-May-17 09:11N 58°22' E 011°15'0 0.0
2015-May-16 16:30N 58°22' E 011°15'3 3.0
2015-May-16 15:33N 58°20' E 011°18'6 6.3
2015-May-16 14:31N 58°14' E 011°25'8 6.1
2015-May-16 13:13N 58°06' E 011°27'15 5.6
2015-May-16 10:33N 57°52' E 011°38'1 0.1
2015-May-15 12:33N 57°51' E 011°37'3 3.2
2015-May-15 11:33N 57°48' E 011°38'5 5.3
2015-May-15 10:33N 57°43' E 011°40'1 0.1
2015-May-15 05:33N 57°42' E 011°40'6 5.8
2015-May-15 04:33N 57°37' E 011°40'7 6.5
2015-May-15 03:30N 57°30' E 011°40'33 6.6
2015-May-14 22:33N 57°01' E 012°09'8 7.2
2015-May-14 21:30N 56°54' E 012°13'7 7.2
2015-May-14 20:33N 56°47' E 012°16'  

Dump ship's entire track history